Theta_e
335 334 335 342 338 339 339 339 339 339 342 347 347 346 344 343 342 342 342 341 341 345 348 347 347 347 346 347 346 345 345 345 344 344 344 345 345 344 344 344 344 343 344 345 346 347 346 347 346 345 345 345 345 347 347 347 347 346 346 346 345 345 344 344 344 343 342 342 343 343 343 343 344 345 345 344 343 342 339 340 339 336 336 338 341
334 334 333 336 340 339 338 338 338 339 343 344 345 345 344 342 342 341 339 338 339 342 346 347 347 347 346 345 345 345 342 340 340 341 341 342 342 342 343 344 344 344 344 344 345 345 345 345 345 345 345 345 344 345 347 346 346 345 344 344 344 343 343 343 342 342 342 342 342 342 342 343 345 344 344 343 343 341 338 338 338 334 334 340 340
335 334 333 336 341 339 337 338 338 339 341 343 345 345 343 343 342 340 338 338 339 341 347 347 346 346 346 346 345 343 340 340 339 339 339 339 339 339 341 341 342 342 343 344 344 344 344 344 345 344 344 343 346 345 346 345 344 344 344 343 343 342 342 342 341 341 340 341 341 340 340 341 341 342 343 342 341 340 338 338 337 336 333 338 337
335 334 333 338 342 342 340 339 338 339 341 344 345 345 344 343 342 341 340 340 340 340 343 343 345 345 345 346 346 343 342 341 341 343 341 340 340 340 339 340 340 340 341 342 343 343 343 343 344 343 343 343 344 344 344 343 343 343 343 342 342 341 341 340 339 339 339 338 338 337 335 334 337 340 341 341 340 340 338 337 337 337 336 336 336
335 335 335 335 335 340 340 339 340 340 342 343 344 344 343 342 342 341 340 341 341 342 343 343 344 344 345 346 346 346 345 344 344 343 343 343 343 343 342 341 341 340 340 340 341 341 341 341 341 343 343 343 343 343 343 343 343 342 341 341 341 340 339 338 338 338 337 337 336 334 332 333 335 339 340 340 339 337 336 336 335 334 333 333 334
335 335 334 332 332 336 341 340 339 340 341 342 345 345 344 342 342 341 340 340 340 340 341 344 345 346 346 346 346 345 345 345 344 343 343 342 343 345 345 345 344 344 343 342 343 343 342 342 342 343 343 343 342 342 342 342 341 341 341 340 339 339 337 337 336 335 335 334 333 329 329 331 333 336 341 339 338 336 336 333 333 332 331 332 334
336 335 334 333 332 335 340 340 339 340 341 344 345 346 346 342 342 341 341 340 340 340 340 345 346 345 345 344 344 344 344 344 345 344 343 342 342 343 343 343 344 343 344 344 343 343 343 343 343 343 343 342 342 341 341 341 341 341 341 339 338 337 337 335 335 334 332 329 326 326 327 328 330 331 338 338 337 336 333 332 332 332 333 336 335
336 336 334 333 334 338 342 341 340 340 344 346 345 345 345 344 342 342 341 341 341 341 341 341 342 343 343 343 342 342 342 342 344 344 344 344 344 344 344 343 344 343 343 343 343 343 343 343 343 343 342 341 342 342 341 340 340 340 338 338 337 336 335 335 334 333 332 326 325 325 325 326 327 328 334 334 334 335 334 332 331 334 335 334 332
335 335 336 334 333 340 341 342 340 340 340 346 345 344 344 345 343 342 341 341 341 341 340 339 340 340 341 341 341 341 340 344 344 344 343 343 342 342 342 343 343 343 343 343 343 343 343 343 343 342 342 341 341 341 340 340 339 339 338 337 336 335 334 333 332 330 328 326 325 325 324 325 325 326 333 333 332 331 330 330 331 331 331 331 331
335 335 335 333 334 339 340 342 340 340 339 342 344 344 345 345 345 343 341 340 340 340 339 339 339 342 342 342 342 341 341 341 341 341 342 341 343 344 343 343 342 342 342 342 342 343 343 343 342 341 341 340 340 340 339 339 338 337 336 335 334 333 332 331 329 327 322 323 324 326 327 331 325 327 330 332 331 330 328 329 331 330 328 328 327
335 335 334 334 334 339 342 342 342 340 340 341 343 344 345 345 345 343 341 341 340 339 338 338 338 338 338 340 341 341 341 341 341 341 340 340 342 343 343 342 342 342 342 342 342 343 343 342 342 342 342 341 340 338 339 338 337 336 335 335 334 333 331 329 327 322 322 321 321 322 329 331 325 326 333 332 331 330 330 328 328 327 328 326 325
335 335 335 334 339 339 342 342 342 341 341 341 343 343 344 344 345 343 341 341 340 339 338 337 336 341 341 341 341 341 340 340 340 341 340 340 340 341 341 341 341 342 342 341 341 342 342 341 341 341 340 339 338 338 338 337 336 336 335 334 333 331 330 328 323 321 320 321 322 321 320 322 323 327 331 331 331 330 328 328 327 327 327 327 326
335 336 335 334 334 338 340 342 342 342 341 341 341 342 343 344 344 344 342 340 340 339 337 337 337 337 340 340 340 340 340 340 340 340 340 340 341 340 341 341 341 341 341 341 341 341 341 341 341 340 338 337 337 336 336 336 335 335 334 333 332 331 329 327 320 320 319 319 320 319 320 321 324 330 330 330 330 329 328 328 328 326 326 326 327
335 335 336 336 335 340 339 340 341 342 342 341 341 341 342 343 343 343 342 341 340 339 338 336 337 337 338 340 340 340 340 340 340 340 341 341 341 341 341 341 340 340 341 340 341 341 340 340 341 338 337 337 337 338 335 335 335 335 333 332 330 329 326 325 323 318 318 318 320 319 318 322 322 329 330 329 328 328 327 327 326 328 329 328 328
335 335 336 336 336 335 340 338 340 340 341 341 341 342 342 342 343 343 342 341 340 339 338 336 336 339 340 340 339 339 338 338 338 338 339 339 340 339 339 339 340 340 340 340 340 339 339 339 339 337 336 336 336 337 337 334 334 333 332 331 329 327 325 319 319 317 318 320 318 319 320 321 327 328 328 328 327 326 327 326 326 326 326 325 325
336 336 336 336 335 335 335 339 337 338 338 340 340 341 342 342 342 342 342 341 340 339 338 337 338 339 339 339 338 338 338 338 338 339 340 339 339 338 339 339 339 339 339 339 339 338 338 338 338 336 335 335 336 335 335 335 334 332 331 329 328 326 323 320 318 316 316 317 317 319 318 322 327 327 328 325 325 330 328 327 326 324 324 324 325
336 337 337 335 335 334 335 335 333 334 335 336 336 338 340 342 342 342 342 342 340 339 338 340 340 339 341 340 339 339 339 339 338 338 338 338 338 338 338 338 338 338 338 339 338 338 338 337 336 335 335 335 335 335 334 333 331 330 329 328 327 326 323 321 317 316 316 318 318 318 318 320 325 328 326 325 331 328 327 326 325 327 327 326 325
337 337 337 338 337 335 334 332 332 333 331 332 332 335 337 340 341 341 341 341 340 340 340 339 338 338 339 339 339 339 339 338 338 337 337 337 337 338 338 337 337 338 338 338 338 338 337 337 335 334 335 335 334 333 333 332 331 330 329 327 326 324 322 319 316 316 317 320 315 319 318 329 328 328 326 327 329 327 326 325 324 324 325 325 324
337 337 338 338 338 337 334 332 330 331 329 328 328 332 333 335 337 337 338 339 338 336 335 334 334 335 335 335 335 334 334 334 333 334 334 333 333 332 335 336 337 337 337 337 337 337 336 336 335 334 334 334 334 333 332 332 331 330 328 325 324 322 320 318 315 315 315 315 316 316 318 327 323 327 326 325 325 326 325 324 324 323 323 322 322
335 336 337 338 338 338 336 334 334 331 328 328 327 327 330 331 334 336 336 335 334 332 331 330 328 328 329 329 329 328 328 327 328 328 329 331 331 330 332 336 336 336 336 337 336 336 336 335 334 334 333 332 331 330 330 330 330 329 326 324 321 318 316 314 313 314 316 318 317 316 328 329 330 328 327 324 324 325 324 322 322 322 320 324 323
333 335 336 337 338 338 337 336 335 332 330 328 327 326 329 329 330 330 330 330 330 329 328 324 322 322 323 323 324 324 323 324 324 324 324 325 324 326 330 334 336 336 336 336 336 335 335 334 333 332 330 329 326 326 325 328 329 327 325 322 318 316 315 315 315 315 315 315 316 320 329 328 326 329 327 325 323 322 322 323 324 323 321 320 322
331 333 335 336 336 337 336 336 335 333 331 331 330 328 325 328 326 327 326 326 326 324 322 321 325 320 322 323 323 323 322 322 323 327 322 323 324 324 326 331 334 334 334 334 334 333 333 332 331 330 329 329 324 314 314 320 322 324 322 319 316 315 315 315 314 314 314 315 316 322 329 325 323 326 326 323 322 322 322 322 322 321 319 322 320
330 332 333 334 335 336 336 335 334 332 332 331 330 327 325 324 324 325 325 325 325 323 322 321 318 319 318 320 320 322 322 322 322 323 321 321 323 323 326 329 331 331 332 332 332 332 332 332 331 330 328 325 312 311 311 312 313 317 317 316 314 314 314 314 313 314 313 314 315 327 329 325 323 324 326 324 322 323 320 320 321 321 320 320 319
331 331 331 333 335 335 335 334 333 332 332 332 330 328 326 325 323 324 324 323 323 323 321 320 319 319 319 319 319 321 321 321 324 324 323 320 321 321 323 324 325 326 325 326 329 329 329 329 328 326 320 314 312 312 312 311 313 313 314 316 314 313 313 314 313 313 312 316 315 326 328 324 323 322 326 324 322 321 321 320 319 319 319 319 317
331 331 331 332 334 335 335 334 333 333 332 332 331 329 327 325 324 323 323 323 323 323 323 321 319 320 319 320 321 319 321 320 320 320 319 318 317 319 319 320 319 317 319 316 317 316 316 314 314 315 313 313 313 313 313 313 312 313 313 313 313 313 312 313 313 312 312 312 314 322 323 327 323 323 323 325 322 319 319 319 319 317 318 317 317
328 329 330 332 333 335 334 334 334 333 332 332 331 329 328 326 324 324 323 323 323 323 322 323 321 320 319 320 321 321 320 320 319 318 318 318 317 317 317 317 315 316 314 315 312 313 310 311 312 313 314 312 312 312 313 312 311 312 312 313 314 312 311 311 312 312 311 312 314 320 323 325 327 324 322 325 322 320 320 320 318 317 317 317 318
327 329 330 332 334 335 334 335 334 334 333 332 330 329 328 328 326 325 324 323 323 323 323 322 323 321 319 320 321 321 320 320 319 318 318 317 318 316 316 316 316 315 313 315 312 311 311 310 312 315 313 314 313 311 312 314 312 312 311 311 312 313 312 311 311 311 311 311 314 319 322 325 327 323 321 321 323 320 320 320 319 318 317 316 316
326 328 328 331 332 334 335 335 335 334 333 332 330 329 329 328 327 324 325 323 323 323 324 323 323 322 320 321 321 322 321 319 319 318 318 317 317 317 316 315 314 314 315 314 313 310 310 310 312 312 312 312 312 311 311 310 309 309 310 309 309 309 313 313 310 310 311 312 314 317 320 322 324 323 322 322 322 322 320 320 319 318 318 318 316
326 327 328 329 331 333 334 335 335 334 334 332 329 329 329 328 326 325 325 323 324 324 325 324 323 322 320 321 320 321 320 320 319 319 318 318 316 317 316 316 316 314 315 312 313 313 310 311 311 311 309 309 309 310 310 309 307 307 309 309 308 308 309 312 313 310 310 311 313 313 318 320 322 327 323 323 322 322 321 321 320 319 319 318 316
327 328 327 328 330 332 333 334 335 335 334 332 330 328 329 328 327 325 325 323 324 325 324 324 324 323 320 320 320 321 320 320 319 317 318 318 316 316 317 316 315 313 313 315 312 311 311 309 309 309 309 308 310 312 309 309 308 307 307 307 306 307 306 308 311 310 311 310 312 313 316 318 320 326 326 326 326 324 324 322 321 321 319 319 318
326 327 328 329 328 330 332 334 335 333 334 333 331 329 330 329 327 327 325 324 325 325 324 325 324 323 321 320 319 319 320 320 320 318 318 318 316 315 316 317 314 311 313 315 313 313 312 312 312 310 310 310 311 309 309 307 305 306 305 306 305 304 304 305 306 307 308 309 311 310 313 315 318 321 325 326 324 325 324 324 322 321 321 320 319
324 326 328 329 328 329 331 333 335 334 333 333 331 330 330 330 328 328 326 326 325 325 325 325 324 324 322 321 320 319 319 319 319 318 318 317 316 314 315 315 316 312 313 313 313 312 312 312 310 310 310 311 311 308 307 308 305 307 303 305 303 304 302 303 305 305 305 307 308 310 311 312 315 318 320 324 325 325 325 325 324 322 322 322 322
325 327 327 327 328 329 330 331 334 333 333 333 332 331 332 332 330 328 327 327 326 325 325 325 325 324 323 322 321 320 318 319 319 319 317 317 316 315 313 315 316 314 313 312 313 311 309 308 308 309 309 308 309 308 308 306 307 305 303 306 302 303 300 302 303 305 305 304 304 309 311 310 311 313 315 318 322 325 326 326 325 323 323 323 323
325 326 327 327 329 330 331 331 332 332 332 333 332 332 332 332 331 330 327 327 326 325 324 324 324 324 324 322 322 321 319 319 319 317 317 316 316 315 315 314 314 313 313 312 311 311 310 308 308 308 310 308 307 307 307 306 304 302 302 301 300 302 299 302 302 303 303 304 303 303 306 309 310 312 314 315 317 319 323 325 326 325 323 323 323
324 325 326 327 327 329 330 331 329 331 330 331 331 332 331 332 331 331 328 327 326 326 325 324 324 324 324 323 322 322 321 320 318 318 316 316 316 315 314 315 314 313 311 311 312 311 311 311 307 310 305 306 306 307 308 308 304 304 304 301 304 299 299 303 300 302 303 303 303 305 306 306 308 312 314 313 312 315 319 323 325 326 324 324 324
325 325 326 327 327 329 329 331 329 330 330 330 331 332 332 332 332 328 329 327 326 326 325 325 324 324 323 322 323 322 321 321 319 317 316 315 315 315 316 315 313 312 312 310 310 311 310 308 308 310 307 306 304 306 303 306 302 304 301 300 300 298 301 299 302 303 303 302 304 306 306 306 307 307 308 311 313 313 316 318 321 323 325 325 325
325 326 326 326 327 328 327 329 329 329 329 329 329 330 333 333 332 331 329 327 327 326 325 324 324 324 323 323 322 322 321 321 320 318 317 315 315 315 315 314 313 312 311 310 310 311 310 310 307 307 310 308 305 304 303 303 304 302 299 298 299 298 300 301 302 302 301 301 303 304 305 306 306 305 305 306 307 310 312 314 317 320 320 322 324
325 325 326 327 327 327 328 329 329 329 329 329 329 330 332 333 333 332 329 328 327 327 326 325 324 324 323 323 323 322 321 321 320 319 317 317 316 315 313 313 313 312 311 310 311 310 309 310 309 307 308 308 306 306 306 305 302 302 298 299 299 297 299 299 299 298 298 300 301 303 304 304 304 305 304 304 304 305 306 309 311 313 313 316 320
325 325 326 327 327 327 327 327 328 328 328 328 327 328 329 332 333 332 330 329 328 327 326 325 325 324 324 323 323 322 321 321 321 319 318 316 315 314 313 312 312 311 311 310 309 308 308 308 309 307 305 307 307 306 307 305 303 300 300 300 298 297 297 296 296 295 297 298 299 301 301 301 301 302 303 303 302 302 303 304 305 307 309 312 315
325 325 324 325 326 326 326 327 327 329 328 327 327 326 325 327 329 330 330 329 329 326 326 326 325 325 325 324 323 323 322 321 321 320 319 317 316 314 313 312 311 311 310 309 308 308 309 308 308 308 306 303 302 303 304 304 303 302 301 301 300 297 296 296 296 296 297 297 297 298 298 299 299 300 301 302 303 302 303 303 303 304 305 308 311
325 324 324 324 325 325 325 325 327 328 327 327 326 326 325 324 325 328 329 330 329 328 326 326 325 325 324 324 323 323 323 322 321 320 320 317 317 316 314 311 311 311 310 311 311 310 310 309 308 306 306 304 302 299 301 304 304 304 304 302 301 299 298 298 298 297 297 297 297 296 297 297 297 298 299 300 300 302 302 302 303 303 303 303 305
323 324 323 324 325 325 324 326 326 327 328 328 327 326 327 327 326 327 327 328 328 327 328 327 326 324 323 323 323 323 324 323 321 321 320 319 317 316 314 313 311 311 311 311 309 307 307 307 308 306 304 306 305 300 301 305 302 304 304 303 300 301 301 298 297 298 297 297 296 296 296 296 297 298 298 297 298 299 301 302 302 302 302 303 303
323 323 324 324 324 324 324 325 325 326 327 328 327 327 327 326 327 324 326 320 324 329 330 328 324 324 324 323 323 323 323 323 323 322 322 320 319 317 315 314 312 311 310 309 310 308 308 309 308 308 302 300 300 300 304 307 305 301 301 301 301 300 299 296 294 294 296 296 294 295 296 295 296 297 296 296 296 297 298 299 299 300 302 302 303
321 322 323 323 324 324 324 325 325 326 327 327 325 328 327 326 324 321 319 321 320 319 325 325 325 324 324 323 323 324 324 324 324 324 323 322 319 318 316 314 313 312 312 312 310 310 308 308 308 308 307 303 300 302 303 304 306 305 301 301 298 297 298 301 292 295 292 294 294 295 295 295 296 295 294 295 296 296 297 297 297 299 300 301 302
321 322 323 323 325 324 325 325 325 325 326 325 325 326 322 318 317 314 313 314 313 321 324 325 327 325 326 325 325 323 322 322 324 324 323 323 321 319 317 315 314 313 313 312 311 311 310 310 309 308 307 308 306 302 302 303 304 308 307 297 297 295 298 298 297 302 292 293 292 293 293 294 295 295 293 294 294 295 295 295 296 297 298 298 300
320 322 323 324 324 324 324 325 325 325 325 325 325 324 323 323 319 319 318 318 320 319 320 322 325 325 326 328 326 324 322 322 323 324 324 322 322 320 318 316 314 313 312 312 313 311 310 309 309 309 308 309 310 306 303 301 303 304 307 309 307 306 300 297 301 299 298 295 294 291 293 294 295 294 293 293 293 294 294 294 295 296 297 297 297
320 321 321 323 324 324 324 325 325 325 325 325 323 322 323 323 322 322 322 321 320 321 323 323 326 327 327 326 327 326 325 324 323 324 324 323 323 321 320 318 317 314 311 312 312 312 311 310 309 309 309 309 308 308 309 304 300 301 302 304 304 304 303 302 301 299 299 298 298 296 296 293 293 292 293 293 294 293 294 293 294 294 295 296 297
319 319 320 321 322 323 323 323 324 323 325 325 323 323 323 323 322 321 321 321 321 321 320 318 318 321 325 326 326 327 327 327 326 325 325 323 322 322 321 320 318 316 312 313 313 313 312 311 309 309 310 309 308 308 309 307 304 303 300 301 301 303 303 302 302 302 300 297 299 298 295 294 294 293 293 293 294 295 295 294 293 294 295 296 297
317 318 319 320 321 321 321 321 323 322 322 322 322 322 322 323 322 322 320 320 321 319 311 311 315 316 323 325 325 325 326 327 327 326 325 325 321 322 322 321 319 318 314 315 314 314 313 312 310 309 309 309 309 309 309 309 306 307 299 299 300 301 301 301 300 298 297 295 297 298 300 295 292 294 292 293 295 295 295 295 294 294 294 294 295
315 315 316 316 318 319 319 319 320 321 321 321 321 321 321 321 321 321 320 320 318 313 311 313 314 316 321 322 323 324 325 325 326 326 325 325 323 322 322 322 321 320 315 316 315 314 313 313 312 310 310 309 309 308 308 309 308 308 306 304 300 297 297 297 297 297 295 296 294 296 298 297 297 300 299 295 295 295 295 294 294 293 293 294 294
310 310 312 313 314 316 317 317 319 319 318 320 320 320 321 320 322 321 320 320 318 316 312 312 314 315 318 320 321 322 323 324 324 323 324 324 323 319 320 320 319 315 314 316 316 315 314 313 313 311 309 309 309 308 306 307 308 307 307 306 306 304 303 300 299 297 296 292 291 294 295 296 297 297 300 299 297 296 296 295 295 294 294 293 294
Wind_Speed
3 4 2 7 8 7 8 10 12 11 12 14 14 14 13 13 13 13 14 13 13 16 17 16 16 17 17 17 18 18 18 18 18 18 19 19 18 18 18 18 17 17 17 19 19 20 20 20 20 21 21 22 22 22 23 23 23 23 23 22 22 22 22 22 22 21 21 22 23 21 21 20 21 21 22 22 22 20 18 18 15 12 10 14 20
6 3 3 4 9 9 9 11 13 12 12 11 12 13 13 13 12 13 13 13 13 14 17 17 15 16 18 17 17 17 17 16 16 18 17 18 18 17 17 17 18 18 19 18 19 19 20 20 20 21 21 20 21 21 22 22 22 22 22 22 22 22 22 22 21 20 19 20 20 19 21 22 19 21 22 21 21 20 17 19 18 10 8 18 19
5 4 3 4 9 9 11 11 10 11 12 12 12 12 12 11 12 14 13 12 13 15 17 17 16 17 17 17 16 16 17 17 17 18 18 17 18 18 17 17 17 18 18 18 19 19 19 20 21 21 20 21 20 21 21 22 21 21 21 21 21 21 21 21 19 18 18 17 17 17 19 21 21 20 21 20 20 19 17 18 17 15 11 19 17
7 3 3 5 6 6 9 10 10 11 10 12 12 12 12 11 11 14 13 12 13 13 14 15 15 16 16 16 17 17 17 17 18 17 17 18 18 17 17 17 18 18 18 18 18 19 19 20 20 20 20 20 20 20 21 21 21 21 21 20 19 19 19 19 19 18 17 16 15 13 8 7 12 20 20 19 19 19 16 17 18 18 18 16 18
6 4 3 3 4 6 9 11 12 12 10 11 13 13 12 11 13 14 13 14 13 13 14 14 15 15 16 17 17 17 17 18 17 18 18 17 17 17 18 18 18 19 19 19 19 19 19 20 20 20 20 20 19 19 19 20 20 20 20 19 19 19 18 18 18 17 17 16 15 11 6 8 8 17 18 19 18 17 16 17 16 16 16 16 15
6 4 4 4 4 5 8 9 12 11 10 11 13 12 11 13 14 14 12 12 13 13 14 15 15 16 16 17 17 17 17 17 16 16 17 17 17 18 17 18 19 18 19 20 19 19 19 20 20 20 20 20 19 19 19 19 19 19 19 19 18 18 18 17 17 16 15 14 12 7 7 7 6 8 19 18 17 15 16 16 15 15 14 16 16
8 4 4 4 4 4 7 8 9 8 9 11 12 12 10 10 12 14 14 13 13 13 14 16 16 16 16 16 16 17 17 16 16 16 17 16 17 17 17 17 18 18 18 19 19 19 19 19 19 20 20 19 19 18 18 19 19 19 19 18 18 18 17 17 17 16 14 9 6 6 6 7 6 6 18 17 17 17 16 15 15 15 16 16 17
6 5 5 4 4 5 7 9 10 10 12 12 12 12 11 9 12 12 14 13 13 13 13 13 15 15 15 15 16 16 16 16 16 17 17 16 16 16 17 17 17 18 18 18 18 19 19 19 20 20 20 19 19 19 19 19 19 19 19 18 18 18 17 17 16 15 13 7 6 7 7 7 7 6 16 17 17 17 16 15 15 16 16 16 13
7 5 5 4 3 7 7 8 11 9 11 13 11 11 11 9 8 12 14 13 13 12 12 13 13 13 14 15 15 15 16 17 16 17 16 16 16 16 17 17 17 18 17 18 18 18 19 18 20 19 19 19 19 19 19 20 19 18 18 17 17 17 16 15 14 12 7 6 6 6 7 6 6 6 14 17 17 17 16 13 12 14 15 13 15
6 5 5 4 4 8 7 7 9 9 10 12 11 10 9 9 9 10 14 13 13 11 11 12 14 15 15 15 15 14 15 15 16 16 15 16 17 16 16 16 16 16 18 18 17 17 18 19 19 20 20 19 19 19 19 18 18 18 18 18 17 17 15 14 13 9 6 5 6 6 9 10 5 6 12 15 16 15 14 11 9 8 9 13 13
7 6 5 4 5 8 8 8 7 8 9 9 11 11 10 11 9 10 13 13 13 12 12 12 12 13 13 14 14 14 14 15 15 15 15 15 16 17 17 16 17 16 16 17 17 17 18 18 18 18 18 18 18 18 17 17 17 17 17 17 17 16 15 13 9 6 6 6 6 5 6 9 4 4 14 15 16 14 11 13 12 13 13 13 11
7 6 5 4 8 8 9 8 8 10 9 9 10 11 11 11 9 9 12 13 14 13 13 12 13 15 14 14 14 14 14 14 14 14 14 15 15 15 16 16 16 16 16 16 16 16 17 17 17 16 16 16 16 17 16 16 16 16 16 16 15 14 13 11 7 6 6 6 6 5 5 5 6 9 16 15 14 14 14 14 14 13 14 14 13
7 6 5 4 4 7 9 9 7 8 9 9 10 12 12 12 10 9 10 14 14 13 12 12 11 13 14 14 14 14 14 14 14 14 14 14 14 15 15 15 15 15 15 15 15 16 15 16 15 15 15 14 14 14 15 16 16 16 15 15 15 14 11 9 6 6 5 5 4 5 5 5 5 14 14 14 14 14 15 14 13 12 12 13 14
8 7 6 4 4 9 9 9 8 8 8 9 9 11 11 11 11 9 10 14 13 12 12 12 11 13 12 13 14 14 14 14 14 14 14 14 14 14 14 15 15 15 15 15 15 14 14 14 14 14 13 13 13 14 15 16 16 16 15 15 14 12 10 7 6 4 4 5 4 4 4 4 5 14 15 15 13 13 14 13 12 15 17 14 14
10 8 6 5 5 5 9 8 8 8 7 8 7 8 11 11 11 10 11 12 13 12 12 12 12 13 12 13 14 13 13 13 13 13 13 14 14 13 13 14 14 14 14 14 14 14 13 14 13 13 12 13 13 14 15 16 15 15 14 13 12 10 8 5 4 4 5 4 4 5 6 6 12 13 13 13 10 9 13 13 13 14 13 13 12
11 9 7 5 5 4 5 7 8 7 7 7 5 6 10 9 11 12 12 12 12 12 12 11 12 11 11 11 12 12 13 13 12 11 9 11 13 13 13 13 14 14 14 14 14 13 13 12 12 11 12 13 14 14 14 14 14 13 13 12 10 9 9 6 5 4 5 5 3 1 3 5 11 11 15 11 9 18 15 14 12 10 10 12 13
9 9 8 6 5 4 5 4 5 7 7 7 6 5 7 9 9 11 11 10 11 11 11 12 11 11 10 11 11 12 12 12 13 11 10 9 12 11 12 13 13 13 13 13 13 12 12 12 11 10 11 13 14 15 15 14 13 12 11 9 9 9 9 7 5 4 4 3 3 4 3 3 6 16 13 10 18 14 13 12 10 13 14 12 12
9 9 9 8 6 5 4 4 4 4 3 5 6 6 7 7 8 8 8 9 9 10 10 10 10 10 9 10 10 10 11 11 11 10 9 9 10 10 10 11 12 12 12 13 12 12 11 11 10 9 10 12 13 14 14 12 11 10 9 10 9 10 8 7 4 3 3 4 3 1 3 4 14 12 10 12 13 12 11 10 10 11 11 10 10
8 8 9 9 7 6 5 4 4 4 3 3 3 5 7 6 7 8 8 8 9 10 10 10 10 10 10 10 10 10 10 10 10 9 9 9 10 11 10 9 11 12 12 12 12 11 10 10 9 8 9 10 10 11 12 11 9 9 10 10 10 9 8 5 3 3 3 2 1 2 1 8 2 14 9 10 11 11 10 10 10 10 9 10 10
7 8 9 8 7 7 5 5 5 4 3 3 3 3 6 7 7 8 8 9 9 9 9 9 9 10 10 10 10 9 8 8 10 7 9 9 9 7 8 8 10 11 11 12 11 11 9 8 8 7 8 8 9 9 9 10 10 9 8 10 9 8 5 4 4 3 3 3 2 2 4 8 15 9 10 9 9 10 10 8 8 9 8 12 9
5 8 9 8 8 7 7 6 5 5 4 3 3 3 4 6 6 8 9 9 9 8 9 9 8 9 9 9 9 6 5 5 6 5 7 6 9 10 9 8 8 9 11 11 11 10 8 7 7 7 7 7 6 7 8 8 8 8 6 7 9 6 4 4 3 3 3 2 3 3 4 3 9 13 9 9 8 8 8 10 11 9 8 7 9
7 7 7 8 9 8 9 8 6 6 5 4 3 3 3 4 4 4 4 5 6 7 6 4 6 4 8 6 5 5 5 4 5 5 5 5 7 10 10 10 9 9 9 11 11 9 8 7 6 6 6 5 5 3 4 5 7 6 6 6 5 4 3 4 4 3 2 1 2 3 2 5 6 9 9 8 6 7 8 8 8 7 4 10 7
9 7 7 8 8 8 8 8 7 7 6 5 4 4 3 3 3 3 4 4 4 4 4 4 4 4 4 4 5 5 4 4 4 5 4 6 7 9 10 10 10 9 9 9 9 8 6 6 6 5 5 5 3 3 2 3 4 6 6 4 4 4 4 4 4 4 2 0 1 3 5 8 5 6 10 8 6 9 6 5 7 6 5 7 6
9 8 8 7 8 8 9 8 8 8 7 6 5 5 4 4 4 4 4 4 4 3 3 3 3 4 4 4 4 4 4 4 5 8 7 5 5 8 9 10 9 8 9 6 6 6 5 5 4 3 4 3 2 2 2 2 3 3 3 2 3 3 4 4 4 4 3 2 1 1 2 4 5 4 9 6 6 4 4 6 6 4 6 6 5
8 7 7 9 9 9 9 8 8 8 8 6 6 6 5 5 4 4 4 5 4 4 4 3 3 4 3 4 4 3 4 4 4 5 5 5 4 4 5 5 5 4 5 4 3 2 3 2 1 1 0 1 2 2 2 2 3 3 3 3 2 1 2 4 4 3 3 3 2 2 3 3 4 5 3 7 8 6 6 5 4 1 3 4 3
6 8 9 9 10 9 10 8 8 8 8 8 8 7 6 6 5 5 5 5 5 5 5 4 3 4 3 4 5 4 4 5 4 4 4 5 5 5 5 5 4 4 3 4 3 3 2 2 2 2 1 0 1 2 2 1 2 2 2 2 3 3 2 2 4 3 3 2 4 4 1 4 7 5 4 9 8 5 2 7 3 1 3 2 4
8 8 8 8 9 9 10 9 9 9 9 8 6 7 7 6 6 6 6 6 5 5 5 5 5 4 3 5 6 5 4 5 4 4 5 4 5 5 5 5 5 4 3 5 4 3 3 3 4 4 1 0 1 2 4 1 0 2 1 1 2 3 4 3 3 4 4 3 4 7 4 4 5 5 4 3 9 6 4 4 5 4 2 4 3
6 7 7 8 9 11 11 11 10 10 8 8 8 7 6 6 7 6 6 6 6 6 6 6 5 5 5 6 6 6 6 5 5 5 5 4 5 5 5 5 4 4 4 3 4 3 2 2 3 2 1 0 1 1 0 1 1 2 3 2 2 3 3 4 3 4 5 4 5 7 5 4 3 5 5 7 6 7 5 6 5 4 5 6 5
9 9 7 8 10 10 10 12 11 11 9 9 8 7 7 7 6 7 7 6 6 6 7 5 5 5 6 7 6 6 5 6 6 5 4 5 4 4 5 5 5 5 4 4 4 5 3 3 3 3 2 1 1 2 1 1 1 2 3 2 1 2 3 4 4 4 4 4 4 5 6 5 4 6 9 9 5 6 7 8 7 8 6 6 3
11 10 9 8 8 9 11 12 12 11 9 9 8 7 7 8 8 8 7 7 7 7 6 6 6 6 6 7 7 7 7 7 6 5 6 5 5 4 4 5 5 5 5 5 5 5 5 3 3 2 3 3 3 4 3 2 1 2 2 3 2 1 1 1 3 4 4 4 5 5 7 6 6 7 9 10 9 9 10 10 8 8 7 7 7
9 10 10 9 8 9 10 11 11 11 9 10 9 9 8 8 8 8 7 7 8 6 6 6 6 6 7 7 7 7 7 6 7 6 5 5 5 5 5 5 4 5 5 5 5 5 5 6 5 5 4 3 4 3 3 3 2 2 3 3 3 2 2 1 0 2 3 4 4 4 5 8 8 8 9 9 12 12 10 12 9 9 10 10 9
11 12 10 8 8 10 10 10 11 11 10 10 9 9 9 8 8 7 8 8 7 7 7 7 7 6 6 6 6 6 6 6 7 7 7 6 6 6 6 5 6 5 5 5 6 5 5 5 4 4 4 4 4 3 3 3 3 4 3 4 3 3 3 1 1 1 3 4 5 5 4 5 8 9 10 10 10 11 11 13 13 11 12 12 12
8 9 10 9 11 10 10 10 11 11 11 11 10 9 9 8 8 8 7 8 7 7 7 7 7 7 6 7 7 7 6 7 7 7 7 7 6 6 6 6 6 6 5 5 5 4 3 2 2 1 1 1 1 3 1 2 4 4 3 4 2 3 1 1 2 1 1 2 3 5 5 5 5 7 9 9 9 10 11 13 14 12 13 13 13
9 7 9 12 10 8 8 8 10 12 12 10 9 8 9 8 8 8 7 8 7 7 7 7 7 7 7 8 7 7 7 6 6 6 6 6 6 6 7 6 6 5 5 5 6 5 4 3 4 2 4 3 4 3 3 3 4 2 3 3 3 4 2 3 3 2 2 3 3 3 4 4 5 5 6 9 10 10 11 13 15 17 14 14 15
9 9 13 13 11 10 9 8 10 11 11 11 11 10 9 8 9 8 8 8 8 7 7 6 7 7 7 7 8 7 7 7 7 7 6 6 6 6 6 7 6 5 6 5 5 4 4 5 3 4 3 3 3 4 4 5 4 5 5 5 5 3 2 4 3 3 3 3 3 4 4 4 5 5 5 5 7 11 11 11 12 13 15 16 16
13 13 12 11 12 11 11 10 10 11 12 11 10 10 9 9 8 8 8 8 7 7 7 7 7 7 7 7 7 7 7 7 7 6 6 6 6 6 7 6 5 5 5 4 4 6 5 3 4 5 5 4 2 4 3 5 4 5 4 4 4 3 4 4 5 5 4 2 4 4 4 5 5 5 4 5 5 6 11 11 11 11 11 13 16
13 13 13 12 12 12 12 12 13 13 12 11 10 8 9 9 9 9 9 8 8 8 7 6 6 7 6 6 6 7 6 7 7 7 7 6 6 6 6 6 5 6 5 5 6 6 5 5 4 5 5 6 5 4 4 4 5 4 3 4 4 3 5 6 6 5 3 4 5 5 5 6 5 5 5 5 5 5 8 12 10 11 11 12 14
12 13 14 14 14 12 12 13 12 12 11 11 10 9 9 9 8 8 8 9 9 8 7 7 7 7 7 7 7 7 7 6 7 7 7 7 7 7 5 5 5 6 6 5 6 5 5 6 6 4 5 4 5 5 6 5 3 4 3 4 4 3 5 4 4 3 4 6 6 6 7 5 5 6 5 5 5 5 5 8 10 12 12 12 14
10 12 13 13 12 11 10 12 12 11 10 9 9 8 8 7 7 8 9 9 8 8 7 8 7 7 7 7 7 7 7 7 7 7 7 7 6 6 6 5 6 6 6 6 5 5 4 5 7 6 4 5 5 5 6 4 4 4 4 5 4 5 5 5 5 5 6 6 6 7 4 6 6 5 6 5 5 5 6 5 5 5 7 12 12
11 11 12 12 12 11 10 10 11 12 9 8 8 8 7 8 9 7 9 10 9 8 7 8 7 8 8 7 7 7 7 7 7 7 7 7 7 7 7 5 6 6 6 6 6 6 8 7 7 6 5 3 1 3 3 3 2 3 5 5 6 5 6 6 5 6 6 6 7 6 6 6 6 6 6 7 6 6 5 5 5 6 6 8 10
12 12 12 12 13 14 12 14 12 11 10 10 9 10 10 8 7 11 12 9 9 8 8 8 8 8 8 7 8 8 8 8 8 7 8 7 7 7 6 5 6 6 7 8 9 9 7 6 4 3 6 5 4 2 3 3 2 3 4 7 7 6 8 7 8 7 8 7 6 6 6 6 7 7 7 6 6 7 6 6 6 5 6 6 7
12 12 13 14 14 14 14 14 10 11 12 13 11 11 11 12 11 11 10 9 8 9 10 8 9 7 8 8 8 8 9 9 8 8 8 8 7 7 7 7 7 7 8 7 5 5 5 4 4 3 3 7 6 4 4 4 1 5 5 7 4 4 8 5 7 8 8 6 6 6 6 7 8 7 6 6 7 7 7 7 7 6 6 6 7
15 16 15 14 13 13 12 13 12 13 13 13 12 13 11 10 11 8 9 5 6 8 8 7 6 7 8 9 9 9 9 9 9 9 9 8 8 8 8 7 7 7 6 5 6 6 6 7 7 6 4 1 2 2 6 7 5 2 1 2 7 7 3 2 3 6 7 8 5 6 8 7 10 7 6 6 7 7 7 6 7 7 8 8 7
11 11 12 15 13 13 12 13 13 13 13 13 13 13 12 9 7 5 5 8 6 5 5 5 7 8 10 9 9 10 10 9 9 9 9 8 9 9 7 7 7 7 8 8 7 8 6 6 6 7 5 4 3 5 5 5 4 5 2 4 2 1 9 6 2 6 4 5 5 8 6 8 8 6 6 7 8 7 7 6 7 7 8 8 8
14 14 15 14 12 15 15 15 13 14 12 13 14 11 7 5 5 2 3 3 1 5 7 8 9 10 9 10 11 8 8 9 9 10 9 9 8 8 8 8 7 8 7 7 7 8 9 9 10 8 8 8 7 4 4 5 6 5 5 2 1 2 6 5 5 8 1 3 5 6 6 7 8 7 6 7 6 7 7 7 7 7 8 8 8
15 15 14 14 13 12 13 13 11 11 12 13 14 11 11 11 9 9 9 9 9 9 12 15 12 11 14 9 7 9 9 8 8 9 9 9 9 9 8 8 8 7 7 7 7 6 7 7 7 9 9 8 7 5 4 3 7 8 7 6 4 7 3 3 1 7 2 4 4 3 5 6 7 6 5 6 8 8 6 8 7 8 8 8 8
16 11 11 13 13 12 13 14 13 11 12 12 12 11 10 11 14 15 14 14 14 12 10 7 9 9 6 7 9 8 9 9 8 8 9 9 8 8 8 8 8 8 7 7 7 8 7 8 7 7 8 8 6 7 7 4 2 5 6 8 9 6 3 3 7 3 10 2 4 5 6 5 6 5 6 7 8 7 7 7 8 8 8 8 8
14 10 13 11 14 15 12 13 11 11 11 10 12 13 13 13 13 13 13 13 14 13 10 7 5 5 7 8 7 8 8 9 9 8 8 8 8 8 8 8 8 8 8 8 8 7 6 5 6 7 6 6 7 8 7 6 7 4 7 9 9 10 8 6 7 9 10 12 8 3 4 4 4 6 5 7 8 8 8 7 7 8 7 7 7
11 13 13 13 12 11 12 10 12 11 9 10 12 13 13 13 13 12 12 12 11 9 4 5 5 5 8 7 8 7 7 8 8 8 8 8 8 8 8 8 8 8 8 7 8 7 9 8 7 7 8 8 7 7 6 6 6 7 4 6 6 7 6 7 6 3 7 8 13 7 8 1 2 6 5 7 8 8 8 8 7 7 7 7 7
11 9 8 7 8 8 9 10 12 10 10 10 11 12 13 11 12 12 14 12 8 5 5 6 6 6 9 9 8 8 7 7 8 8 7 7 8 8 8 9 9 9 8 8 8 8 7 7 8 9 9 10 7 7 8 7 6 6 7 6 5 3 3 5 5 5 6 7 14 11 8 9 10 8 5 6 8 8 8 8 7 7 7 8 7
6 6 8 8 7 8 10 11 12 9 9 11 11 13 12 12 13 13 14 13 11 8 7 7 7 7 9 9 9 8 6 8 7 7 8 7 8 7 8 7 6 5 6 7 9 10 9 9 8 9 8 9 7 8 8 9 7 6 7 7 8 8 8 8 6 6 6 6 5 10 9 7 9 12 6 6 8 9 8 6 7 7 8 8 7
Wind_Direction
209 149 182 137 135 124 122 117 117 127 110 103 102 98 98 103 102 100 98 100 106 100 95 97 96 97 93 90 89 89 85 84 81 79 77 79 79 78 77 76 78 78 78 75 75 75 77 78 78 78 78 78 78 78 77 76 76 76 75 73 73 74 73 72 69 67 67 69 69 70 68 71 71 74 73 72 72 70 67 64 60 57 54 59 61
170 173 158 144 134 131 126 119 126 125 101 99 105 100 103 103 101 94 100 110 104 94 99 96 93 95 94 92 91 89 86 85 87 84 83 84 83 83 82 83 82 79 79 77 77 76 77 79 79 79 78 78 80 81 80 78 77 78 77 75 76 76 75 72 71 70 69 70 70 68 74 77 78 76 76 74 74 72 70 69 66 63 61 64 62
133 141 167 143 140 139 132 133 124 114 116 114 106 105 107 105 101 98 99 103 104 107 92 87 89 88 90 92 93 92 91 87 86 90 91 88 86 85 85 83 81 84 84 84 82 82 83 82 80 80 81 84 82 82 80 80 81 81 80 78 76 76 73 71 69 67 67 67 66 67 71 75 77 75 73 72 74 73 71 73 71 69 68 68 67
129 150 153 134 130 119 120 124 130 128 120 110 113 113 111 113 111 108 106 104 101 101 93 93 91 89 88 92 96 96 94 89 86 86 89 90 91 92 91 86 86 87 87 86 87 88 88 86 84 85 87 87 85 83 84 86 86 83 81 79 76 74 73 72 70 69 67 65 65 66 60 51 68 73 74 74 74 70 66 67 70 71 68 67 69
132 145 138 117 117 127 128 135 139 131 115 115 118 116 111 111 108 107 111 107 102 94 94 96 98 96 95 97 97 96 94 91 89 90 87 87 88 88 91 91 88 90 90 91 92 93 91 91 89 87 87 87 86 86 87 87 86 85 82 79 78 75 74 73 71 69 67 64 65 63 50 54 60 75 76 75 75 74 72 71 68 66 66 66 68
139 140 127 117 118 131 138 136 130 123 123 115 121 116 114 114 111 108 108 105 105 105 101 98 97 94 97 97 95 96 95 92 96 92 89 91 93 93 92 93 92 92 92 93 92 90 91 91 89 87 86 86 88 89 88 86 86 84 82 80 79 77 75 72 69 66 61 57 51 46 48 51 57 66 76 74 73 71 71 69 68 68 65 63 62
136 137 126 124 126 134 141 130 127 123 126 121 123 123 117 119 112 111 105 101 102 103 106 103 102 102 101 97 96 93 92 93 94 95 92 88 88 90 92 94 95 92 92 93 93 94 93 92 88 86 84 86 85 85 85 86 85 84 83 82 80 78 75 72 68 63 58 53 47 41 43 46 49 52 68 71 72 72 71 71 71 68 65 66 67
126 131 129 129 135 144 133 135 139 139 130 121 122 126 122 109 108 110 110 111 109 106 104 105 108 101 96 96 96 97 97 97 96 97 94 92 90 87 87 88 92 95 95 94 96 95 92 91 90 86 86 87 87 85 84 84 84 83 82 81 78 77 73 69 65 62 59 57 47 46 46 46 48 52 65 65 64 63 63 65 67 66 66 67 63
134 135 128 133 139 129 131 142 134 134 131 115 122 129 126 116 109 120 116 109 105 107 111 109 100 99 100 100 98 100 104 101 98 96 96 95 96 97 98 98 97 94 93 97 99 96 92 91 87 84 86 87 87 89 88 87 85 83 82 80 78 74 70 65 60 57 54 57 58 55 53 49 49 56 66 67 66 64 58 44 41 61 69 70 73
137 130 131 131 134 128 134 135 134 133 133 124 123 125 129 122 97 99 111 109 108 108 106 104 107 104 103 99 94 94 94 96 98 96 94 95 91 90 86 83 86 94 99 100 100 98 93 89 87 86 86 89 90 89 89 89 88 87 86 84 81 75 70 66 61 58 56 48 48 59 70 67 53 67 71 70 69 68 66 63 68 67 72 66 63
138 136 131 133 139 141 142 139 134 129 131 130 122 126 131 125 112 111 119 114 111 113 111 106 106 108 105 100 102 102 98 101 98 96 96 98 95 96 95 96 97 97 96 98 99 97 94 90 85 84 83 81 85 91 93 93 93 92 91 89 86 82 76 68 60 58 59 57 58 52 63 70 74 78 73 73 72 70 65 69 72 68 65 73 73
139 136 133 139 146 143 132 133 139 140 137 130 122 122 130 130 122 116 121 114 114 114 112 111 112 107 107 106 106 103 102 101 100 99 98 97 97 97 96 94 92 91 92 95 98 98 92 90 87 81 78 82 88 90 93 96 96 95 93 90 86 82 76 72 71 65 65 65 62 58 47 41 49 65 68 68 66 67 65 60 58 64 65 61 61
141 138 137 144 141 139 135 140 143 137 137 133 131 125 132 138 126 114 123 120 119 116 116 115 114 114 109 111 109 106 107 105 104 102 104 103 101 98 98 97 94 93 95 97 99 100 96 90 84 78 77 78 81 88 97 100 100 100 97 94 90 84 76 69 66 58 49 42 41 35 46 52 62 72 70 70 68 67 67 64 61 63 63 71 68
142 140 142 142 144 144 142 143 141 138 137 133 131 125 130 135 126 119 128 121 120 120 115 113 111 108 114 115 110 107 109 108 104 105 106 105 102 102 101 100 100 102 103 102 102 102 98 94 84 80 78 77 80 87 102 105 104 103 101 98 94 87 76 65 65 62 51 41 41 47 52 72 74 69 68 68 68 72 70 71 65 60 61 63 63
144 147 143 142 143 141 142 143 143 144 134 133 140 135 129 136 133 128 117 121 122 121 118 113 113 93 96 114 113 112 109 107 107 104 103 102 103 105 101 102 101 100 103 101 100 102 102 95 83 80 79 80 82 87 99 106 106 104 104 101 95 89 83 75 68 71 68 56 60 70 69 67 77 82 79 71 71 68 76 66 62 59 60 65 68
144 145 141 142 139 140 136 144 144 141 132 131 137 133 128 133 140 130 120 122 124 123 121 117 107 99 101 106 110 110 107 103 93 84 90 98 102 101 103 102 104 104 102 102 98 99 104 96 86 83 82 82 82 87 96 101 102 101 100 100 96 93 92 92 81 69 65 64 62 74 57 77 85 76 73 70 60 73 69 63 64 66 70 66 70
139 142 142 143 142 138 138 138 140 134 133 137 135 110 116 133 136 135 128 124 123 123 119 109 107 104 99 101 102 99 100 95 89 82 72 86 102 105 105 107 105 105 105 102 98 99 102 97 89 86 83 83 83 84 85 87 90 94 97 94 93 95 96 94 83 75 78 69 51 34 6 60 80 80 71 56 72 69 69 67 69 68 67 66 69
146 148 147 149 146 141 136 131 130 126 129 131 127 114 100 108 131 134 129 124 120 112 104 105 103 100 100 103 104 103 97 93 89 84 78 72 72 87 101 105 108 106 108 105 103 101 103 100 95 89 84 84 86 84 82 78 81 86 88 95 96 98 96 91 89 78 51 41 25 345 103 85 82 88 73 72 72 67 71 75 69 69 72 74 71
151 152 149 151 153 147 138 134 132 127 130 124 116 116 112 110 113 123 121 113 110 110 109 107 108 107 105 105 103 101 99 96 94 91 85 76 75 78 85 98 109 110 109 107 103 103 103 103 98 92 86 83 80 77 73 70 68 84 99 106 105 101 94 88 82 78 74 67 32 51 87 105 100 85 75 56 65 70 72 67 72 70 69 68 66
157 155 155 156 158 154 145 141 137 135 133 121 112 118 122 119 118 118 115 115 116 116 115 112 111 111 111 108 105 101 98 97 95 87 83 80 84 90 92 103 108 110 109 111 108 104 101 100 102 93 86 80 73 66 62 66 68 76 106 114 114 107 95 94 95 78 72 68 72 73 71 92 87 88 80 71 63 80 88 84 75 82 75 75 70
162 166 160 161 159 160 154 151 147 141 136 127 118 120 128 121 117 118 119 122 123 122 119 115 112 115 113 113 107 105 107 103 96 98 88 91 95 93 88 81 92 104 110 108 103 100 98 101 102 97 88 80 66 63 61 61 61 68 82 113 113 103 111 106 93 82 70 55 37 33 75 349 82 89 87 74 78 78 80 81 76 73 67 85 81
170 170 173 162 159 164 165 160 152 151 146 139 132 127 129 120 120 122 122 123 125 125 126 131 127 124 123 117 114 115 114 112 111 106 104 99 97 103 103 98 91 96 107 109 106 104 101 102 107 98 82 69 62 55 47 55 58 61 89 105 109 119 121 116 108 99 91 39 32 59 78 108 88 92 90 91 93 76 71 79 90 84 91 79 78
174 175 174 171 168 165 166 167 163 156 151 145 143 142 136 130 135 134 133 137 144 141 147 143 140 130 122 124 125 126 126 125 128 126 116 111 112 108 107 107 106 103 104 107 110 104 101 99 95 69 50 40 45 36 27 37 47 47 76 100 120 124 125 119 118 120 139 109 53 93 99 94 81 93 106 101 70 73 88 93 88 107 86 82 91
176 177 171 176 170 170 173 172 168 162 156 155 151 152 151 149 150 149 147 154 157 161 163 165 150 139 139 129 131 136 129 123 123 122 116 111 107 106 109 110 110 111 112 107 108 112 108 102 89 55 28 21 19 24 31 33 38 46 49 87 99 141 141 144 138 148 160 156 140 239 18 119 116 105 120 108 106 112 97 89 106 115 111 106 65
173 167 168 177 177 176 173 174 171 166 160 159 159 165 160 153 162 163 163 166 171 176 180 178 168 150 156 142 142 139 135 135 138 132 128 130 127 128 128 128 130 129 124 123 124 122 116 126 64 55 25 20 10 346 4 6 71 36 45 107 104 155 156 152 150 152 178 153 164 217 319 317 177 139 116 134 116 131 149 108 110 96 103 132 107
161 174 181 174 180 179 176 174 173 173 171 168 172 165 159 166 171 177 171 179 177 183 188 186 182 175 165 149 146 142 148 143 149 149 149 150 150 158 158 154 154 161 155 146 159 155 166 172 163 182 221 24 9 335 319 348 55 16 35 83 134 150 164 185 157 168 193 207 177 205 254 302 309 162 156 142 135 171 79 117 113 126 347 32 137
176 184 180 179 178 180 180 172 176 176 176 172 166 165 177 174 172 176 174 188 186 184 198 193 188 184 170 156 155 163 163 159 162 165 165 167 168 171 172 173 166 168 182 153 174 187 172 173 174 194 180 11 339 325 303 327 83 150 69 90 117 150 161 191 182 180 193 222 234 204 210 267 315 150 184 206 151 164 149 149 167 169 181 252 287
174 182 183 181 182 184 181 175 177 176 176 171 170 178 179 174 179 176 189 188 182 196 200 197 185 179 173 169 165 167 168 167 177 175 181 177 183 184 181 180 176 184 181 170 167 188 197 181 172 182 184 300 287 311 351 68 24 105 138 113 111 131 160 183 196 201 202 211 213 212 198 237 274 212 210 196 235 194 190 184 186 267 188 210 176
186 191 183 182 188 183 180 179 177 179 175 170 176 182 179 180 176 183 191 190 193 197 201 192 186 179 175 165 164 169 176 171 177 188 174 192 187 187 187 196 184 191 177 198 172 184 193 180 171 190 186 213 225 201 185 61 63 73 123 126 128 129 139 174 187 209 223 220 230 227 209 231 237 210 218 229 223 201 188 206 178 199 214 224 240
193 188 186 188 186 183 183 183 178 181 175 171 181 181 182 182 186 189 192 186 201 197 200 196 193 176 181 171 177 174 176 176 182 186 180 197 190 194 200 203 193 190 184 193 203 175 189 184 180 187 202 199 186 209 179 139 97 125 143 150 169 166 116 151 198 205 222 236 228 224 226 227 246 230 216 240 262 241 211 219 215 214 239 246 226
185 193 193 189 182 181 187 185 181 181 175 179 181 186 183 188 188 192 188 193 199 194 197 200 185 189 184 177 180 180 174 179 180 185 196 195 188 190 209 207 205 194 190 207 188 189 191 185 187 190 196 193 214 197 180 152 158 159 173 173 182 157 112 85 58 245 235 246 257 241 226 231 234 238 241 244 240 244 228 223 236 212 214 225 231
193 198 194 185 182 186 184 186 182 181 180 184 182 186 188 190 189 191 194 195 193 195 196 197 190 191 185 184 179 185 180 184 182 187 192 199 194 193 206 199 214 205 195 202 186 195 192 198 187 187 194 184 209 202 193 160 185 196 185 193 191 163 162 167 165 213 224 238 244 254 251 243 241 240 241 251 262 255 242 225 229 235 229 226 218
203 195 191 187 193 189 182 185 182 182 185 186 186 188 187 189 189 193 197 195 194 193 196 198 192 191 185 187 187 184 186 187 192 187 192 194 194 192 198 204 206 198 195 196 183 195 201 184 214 188 193 167 196 258 132 165 185 214 205 218 202 203 186 176 214 257 272 285 276 251 246 247 252 260 260 264 265 271 269 249 238 235 235 242 242
195 196 190 197 194 192 186 178 184 184 188 188 186 186 189 188 189 192 195 196 197 194 197 198 193 190 188 189 190 187 187 193 190 201 190 188 188 188 189 200 199 187 186 175 181 186 195 187 219 177 215 187 202 215 180 204 231 227 222 228 229 227 208 232 239 239 275 284 298 295 269 257 258 257 254 251 254 262 266 269 259 248 251 247 246
194 198 200 198 191 192 187 189 184 186 186 188 188 189 187 185 186 191 193 194 198 199 195 196 194 194 190 194 192 188 190 188 191 190 198 193 191 195 195 199 184 178 176 186 176 190 184 200 181 198 217 218 205 199 195 205 200 215 223 219 224 238 263 253 267 262 246 265 289 277 269 254 250 255 261 267 259 254 258 263 267 264 252 254 249
199 200 200 195 197 194 189 193 187 187 188 186 188 187 187 188 187 189 192 196 196 200 199 197 196 194 193 199 199 192 191 191 187 185 188 196 195 199 208 191 182 174 184 179 174 184 196 193 204 181 192 235 211 234 223 220 216 226 228 227 238 230 235 256 258 257 247 266 262 266 266 263 251 247 262 264 265 269 266 262 259 260 262 265 253
200 198 195 196 198 196 191 193 192 194 191 186 183 185 184 189 190 191 194 195 201 204 203 202 203 198 195 199 201 201 198 193 191 187 185 194 202 207 207 193 180 181 181 184 191 191 180 192 212 215 190 204 206 233 244 232 229 236 241 240 246 229 237 236 243 247 271 255 252 253 266 257 258 259 249 251 251 255 263 267 269 263 262 265 266
199 197 196 192 196 193 193 195 193 194 193 189 184 183 187 186 190 191 194 200 205 204 204 201 209 205 196 199 196 202 203 196 194 190 193 196 199 204 199 189 184 183 184 182 202 189 193 183 204 220 207 197 217 220 238 242 245 253 256 252 261 255 254 259 261 274 257 259 251 247 248 267 266 259 264 259 257 258 261 265 270 273 266 264 265
196 197 196 196 191 191 191 195 191 192 193 188 183 179 178 188 190 190 199 207 209 207 202 207 208 208 207 198 196 201 206 201 196 190 194 196 200 205 193 193 183 183 178 187 194 195 199 200 199 213 218 214 205 215 224 223 243 256 264 264 272 262 272 270 270 264 252 249 255 255 268 258 260 266 266 262 260 257 260 261 265 264 262 260 263
196 195 197 194 192 190 191 194 195 191 187 185 177 177 177 186 194 200 206 208 207 207 210 211 203 211 210 201 201 203 203 203 198 194 195 194 197 199 200 187 186 176 180 185 201 196 201 201 214 198 201 235 266 222 201 178 213 266 270 273 251 259 262 258 262 253 256 249 249 256 254 259 255 261 256 256 256 256 255 258 257 258 263 268 267
201 194 193 196 194 191 188 197 196 186 183 187 188 185 187 191 199 202 210 204 205 203 211 213 209 211 206 205 204 205 204 203 201 192 200 197 199 197 194 190 186 184 187 202 202 203 202 197 193 182 183 202 239 206 186 149 176 283 261 260 272 240 247 246 245 249 246 244 245 249 254 261 253 252 250 254 258 260 258 256 257 257 262 265 273
211 200 195 197 197 195 193 196 189 191 194 193 191 194 197 196 195 205 200 198 199 203 212 211 212 206 206 207 207 206 204 203 200 197 198 195 198 196 193 192 186 197 204 210 203 195 185 186 169 197 213 193 217 180 189 132 138 224 277 310 294 278 238 240 247 255 253 257 250 253 257 252 257 248 254 253 259 258 256 254 254 255 254 257 261
206 205 202 198 200 199 198 195 193 193 199 196 191 200 201 200 196 199 192 197 211 210 215 211 205 208 209 208 207 207 205 206 200 199 198 199 199 196 199 193 194 191 196 208 202 199 191 193 185 191 209 257 219 199 194 202 193 118 108 22 304 335 342 309 288 264 255 253 243 248 248 255 255 254 254 259 255 252 251 252 255 255 256 254 253
211 211 209 206 202 202 198 197 197 197 197 198 200 203 200 198 204 186 183 178 191 197 208 207 205 209 217 209 211 204 203 204 199 199 203 200 197 199 195 193 196 192 195 200 200 207 191 193 193 207 177 206 215 233 210 223 177 129 280 203 236 96 307 304 303 276 242 242 225 241 242 251 262 265 251 251 253 255 257 252 253 252 255 256 256
209 207 204 205 204 203 200 199 198 198 198 197 200 196 180 178 177 126 127 142 79 173 203 218 210 210 214 212 214 197 201 201 198 199 199 201 198 199 195 195 192 195 196 202 201 206 201 199 193 194 195 208 222 216 216 204 219 218 180 102 315 264 230 279 359 287 137 253 241 231 242 249 256 255 246 255 258 258 257 257 251 253 254 255 256
211 210 204 206 204 202 202 204 201 199 199 198 195 186 187 186 177 185 192 200 206 197 204 207 205 205 212 211 205 202 201 203 200 200 201 198 199 199 196 192 194 191 196 202 204 202 207 201 198 196 209 215 222 203 216 213 220 224 235 233 215 256 269 220 9 290 352 216 244 217 227 240 252 262 257 259 260 258 244 255 251 254 253 253 253
217 205 205 208 207 204 202 202 201 200 200 197 189 187 191 195 196 201 203 203 209 217 218 212 209 214 208 205 207 202 206 204 205 202 202 201 200 198 198 197 195 193 191 196 204 204 202 204 199 207 213 207 199 235 227 194 210 252 244 246 259 263 250 278 261 326 297 256 256 253 262 237 251 248 251 254 259 266 260 242 254 251 251 248 249
211 199 209 206 206 207 200 201 202 203 201 195 190 192 195 199 202 207 208 210 211 218 206 206 195 192 202 209 200 204 203 206 205 204 202 198 199 201 199 198 198 198 186 201 208 203 200 203 199 211 215 204 204 219 234 190 193 224 197 231 241 250 256 250 249 256 274 290 280 268 232 255 264 253 231 253 257 254 264 257 247 248 248 247 243
206 206 207 206 206 205 204 202 206 202 201 194 194 198 202 201 204 206 212 218 216 218 186 175 185 186 202 206 206 206 204 206 206 204 202 200 196 203 201 203 203 202 192 201 208 203 203 195 195 204 210 213 209 218 228 221 198 228 163 238 234 243 244 242 257 232 253 277 280 259 275 284 271 268 246 241 251 248 249 256 251 247 248 248 237
212 212 213 205 208 203 206 203 210 202 198 199 198 201 204 202 206 209 213 215 210 204 181 188 191 187 206 210 209 208 206 206 210 209 205 205 202 204 210 212 210 203 192 202 201 205 209 207 201 206 210 214 206 205 220 234 222 223 203 195 203 215 238 258 239 234 249 225 266 277 280 284 278 265 244 244 250 250 250 249 255 256 252 249 244
212 205 207 204 196 198 203 208 212 201 200 203 198 204 202 205 210 210 213 214 206 197 193 204 194 193 210 212 208 211 202 208 200 207 208 207 210 204 208 213 211 209 202 201 208 206 205 202 201 206 210 210 207 208 223 235 226 221 223 218 232 218 227 229 228 205 221 250 275 268 269 237 251 279 254 237 246 247 249 247 247 251 251 248 247